JOENSUU current weather conditions

sailwx.info

Wind from 130 at 4 knots

Air temperature -5.0° C
Visibility: greater than 5.4 NM
Dewpoint -5.0° C
Present weather: Light snow.

Last reported at 2020-Jan-26 08:50 UTC.
Time now 2020-Jan-26 10:18 UTC

Location: N 62°40' E 029°38'.
View on Google Maps.

See reports from other nearby stations

  
Tides and Currents Weather Stations Pressure Air Temp Water Temp Dewpoint Dewpoint Depression Visibility Wind Speed Wind Dir Waves Ship Positions
date/time (UTC)wind fromknots sea level pressurealtimeterstation pressurevisibilityair tempwater tempwave heightnotes
2020-Jan-26 08:50 130 4 5.4-5.0 Light snow.
2020-Jan-26 08:20 140 5 5.4-5.0 Light snow.
2020-Jan-26 07:50 140 5 1.3-5.0 Light snow.
2020-Jan-26 07:20 150 6 2.3-5.0 Light snow.
2020-Jan-26 06:50 160 6 2.5-5.0 Light snow.
2020-Jan-26 06:20 170 7 3.2-5.0 Light snow.
2020-Jan-26 05:50 170 7 2.7-5.0 Light snow.
2020-Jan-26 05:20 180 7 5.4-5.0 Light snow.
2020-Jan-26 04:50 180 6 5.4-5.0
2020-Jan-26 04:20 170 6 5.4-5.0
2020-Jan-26 03:50 160 4 5.4-5.0
2020-Jan-26 03:20 200 2 5.4-4.0
2020-Jan-26 02:50 220 6 5.4-5.0
2020-Jan-26 02:20 230 6 5.4-5.0
2020-Jan-26 01:50 230 6 5.4-4.0
2020-Jan-26 01:20 240 6 5.4-4.0
2020-Jan-26 00:50 230 2 5.4-4.0
2020-Jan-26 00:20 5.4-4.0
2020-Jan-25 23:50 300 2 5.4-4.0
2020-Jan-25 23:20 300 5 5.4-4.0
2020-Jan-25 22:50 290 4 5.4-5.0
2020-Jan-25 22:20 300 6 5.4-4.0
2020-Jan-25 21:50 310 6 5.4-4.0
2020-Jan-25 21:20 290 5 5.4-4.0
2020-Jan-25 20:50 5.4-5.0
2020-Jan-25 20:20 310 6 5.4-5.0
2020-Jan-25 19:50 310 7 5.4-5.0
2020-Jan-25 19:20 310 11 5.4-5.0
2020-Jan-25 18:50 300 8 5.4-5.0
2020-Jan-25 18:20 300 8 5.4-5.0
2020-Jan-25 17:50 310 8 5.4-5.0
2020-Jan-25 17:20 310 12 5.4-5.0
2020-Jan-25 16:50 300 13 5.4-4.0
2020-Jan-25 16:20 310 12 5.4-4.0
2020-Jan-25 15:50 310 13 5.4-3.0
2020-Jan-25 15:20 300 11 5.4-3.0
2020-Jan-25 14:50 310 12 5.4-3.0
2020-Jan-25 14:20 300 12 5.4-2.0
2020-Jan-25 13:50 300 12 5.4-2.0
2020-Jan-25 13:20 310 9 5.4-2.0
2020-Jan-25 12:50 310 13 5.4-2.0
2020-Jan-25 12:20 320 12 5.4-2.0
2020-Jan-25 11:50 310 11 gusting 20 5.4-2.0
2020-Jan-25 11:20 300 13 5.4-1.0
2020-Jan-25 10:50 300 13 gusting 24 5.4-1.0
2020-Jan-25 10:20 300 13 5.4-2.0
2020-Jan-25 09:50 300 13 5.4-2.0
2020-Jan-25 09:20 300 13 5.4-2.0 Light snow showers.
2020-Jan-25 08:50 300 13 5.4-2.0 Light snow showers.
2020-Jan-25 08:20 290 13 5.4-2.0 Light snow showers.
2020-Jan-25 07:50 300 13 5.4-2.0 Light snow showers.
2020-Jan-25 07:20 290 15 5.4-2.0 Light snow.
2020-Jan-25 06:50 290 13 5.4-1.0
2020-Jan-25 06:20 300 11 5.4-1.0
2020-Jan-25 05:50 300 13 5.4-1.0
2020-Jan-25 05:20 300 13 5.4-1.0 Light snow showers.
2020-Jan-25 04:50 290 13 5.4-1.0
2020-Jan-25 04:20 280 12 2.7-2.0 Light snow.
2020-Jan-25 03:50 280 12 3.2-2.0 Light snow showers.
2020-Jan-25 03:20 270 13 5.4-1.0 Light snow showers.
2020-Jan-25 02:50 270 12 5.4-1.0 Light snow showers.
2020-Jan-25 02:20 260 11 5.4-1.0
2020-Jan-25 01:50 260 9 5.4-2.0 Light snow.
2020-Jan-25 01:20 250 11 5.4-2.0 Light snow.
2020-Jan-25 00:50 240 7 5.4-2.0 Light snow showers.
2020-Jan-25 00:20 250 6 5.4-2.0
2020-Jan-24 23:50 240 6 5.4-2.0 Light snow showers.
2020-Jan-24 23:20 230 6 5.4-2.0 Light snow showers.
2020-Jan-24 22:50 240 6 5.4-2.0 Light snow.
2020-Jan-24 22:20 230 4 5.4-3.0 Light snow.
2020-Jan-24 21:50 210 2 2.7-3.0 Light snow.
2020-Jan-24 21:20 240 4 5.4-3.0
2020-Jan-24 20:50 260 6 5.4-3.0
2020-Jan-24 20:20 250 6 5.4-3.0
2020-Jan-24 19:50 260 7 5.4-3.0
2020-Jan-24 19:20 280 6 5.4-3.0
2020-Jan-24 18:50 270 7 5.4-3.0
2020-Jan-24 18:20 270 7 5.4-3.0
2020-Jan-24 17:50 280 8 5.4-3.0
2020-Jan-24 17:20 280 11 5.4-3.0
2020-Jan-24 16:50 280 9 5.4-2.0
2020-Jan-24 16:20 280 11 5.4-2.0
2020-Jan-24 15:50 290 8 5.4-2.0
2020-Jan-24 15:20 280 8 5.4-2.0
2020-Jan-24 14:50 280 8 5.4-2.0
2020-Jan-24 14:20 280 8 5.4-2.0
2020-Jan-24 13:50 290 8 5.4-2.0
2020-Jan-24 13:20 280 8 5.4-1.0
2020-Jan-24 12:50 280 9 5.4-1.0
2020-Jan-24 12:20 280 9 5.4-1.0
2020-Jan-24 11:50 280 12 5.4-0.0
2020-Jan-24 11:20 290 13 5.4-0.0
2020-Jan-24 10:50 290 14 5.4-0.0
2020-Jan-24 10:20 290 13 5.4-0.0